DG5TKE Weather Reports


time (UTC)temp
C
wind
direction
speed
KPH
gust
KPH
rain 1hr
cm
rain 24hr
cm
rain mn
cm
humidity
%
barometer
mb
20260503222006 16 0 0.0 1.6 0.00 0.00 0.00 60 1009.9
20260503221006 16 0 0.0 1.6 0.00 0.00 0.00 59 1009.7
20260503220003 16 317 0.0 3.2 0.00 0.00 0.00 58 1009.7
20260503215003 16 227 1.6 4.8 0.00 0.00 0.00 57 1009.8
20260503214006 17 191 1.6 4.8 0.00 0.00 0.00 57 1009.6
20260503213003 17 0 0.0 3.2 0.00 0.00 0.00 55 1009.6
20260503212006 17 284 1.6 3.2 0.00 0.00 0.00 53 1009.4
20260503211003 17 280 1.6 3.2 0.00 0.00 0.00 51 1009.4
20260503210220 17 286 1.6 4.8 0.00 0.00 0.00 51 1009.4
20260503205006 17 0 0.0 3.2 0.00 0.00 0.00 52 1009.3
20260503204218 17 267 0.0 1.6 0.00 0.00 0.00 51 1009.2
20260503203003 18 276 3.2 6.4 0.00 0.00 0.00 51 1009.1
20260503202006 18 276 3.2 6.4 0.00 0.00 0.00 49 1009.1
20260503201008 18 284 4.8 6.4 0.00 0.00 0.00 50 1009.0
20260503200003 18 289 4.8 6.4 0.00 0.00 0.00 50 1009.0
20260503195006 18 287 3.2 6.4 0.00 0.00 0.00 49 1009.0
20260503194008 18 290 3.2 6.4 0.00 0.00 0.00 47 1009.0
20260503193008 19 292 4.8 6.4 0.00 0.00 0.00 47 1008.8
20260503192007 19 290 4.8 8.0 0.00 0.00 0.00 46 1008.7
20260503191003 20 294 6.4 11.3 0.00 0.00 0.00 45 1008.6
20260503190003 20 297 6.4 12.9 0.00 0.00 0.00 46 1008.6
20260503185006 20 293 4.8 11.3 0.00 0.00 0.00 44 1008.5
20260503184006 20 288 4.8 9.7 0.00 0.00 0.00 44 1008.5
20260503183221 20 294 3.2 8.0 0.00 0.00 0.00 43 1008.4
20260503182006 21 307 3.2 6.4 0.00 0.00 0.00 42 1008.5
20260503181007 21 295 3.2 9.7 0.00 0.00 0.00 41 1008.4
20260503180217 21 290 4.8 9.7 0.00 0.00 0.00 41 1008.4
20260503175003 22 289 4.8 11.3 0.00 0.00 0.00 40 1008.4
20260503174006 22 303 3.2 11.3 0.00 0.00 0.00 39 1008.4
20260503173007 22 297 4.8 12.9 0.00 0.00 0.00 37 1008.3
20260503172006 23 334 4.8 16.1 0.00 0.00 0.00 36 1008.3
20260503171006 24 340 3.2 14.5 0.00 0.00 0.00 37 1008.3
20260503151003 26 337 6.4 12.9 0.00 0.00 0.00 34 1008.4
20260503150218 26 336 6.4 19.3 0.00 0.00 0.00 34 1008.5
20260503140219 25 331 6.4 19.3 0.00 0.00 0.00 35 1008.8
20260503131003 26 352 6.4 16.1 0.00 0.00 0.00 38 1009.2
20260503130221 26 345 6.4 16.1 0.00 0.00 0.00 38 1009.3
20260503120221 28 180 8.0 17.7 0.00 0.00 0.00 27 1009.6
20260503100218 25 225 0.0 4.8 0.00 0.00 0.00 35 1011.0
20260503081217 21 136 4.8 11.3 0.00 0.00 0.00 46 1012.0
20260503072006 17 190 4.8 12.9 0.00 0.00 0.00 53 1012.3
20260503071003 16 196 4.8 9.7 0.00 0.00 0.00 56 1012.3
20260503060220 12 164 3.2 8.0 0.00 0.00 0.00 67 1012.4
20260503055006 11 166 1.6 6.4 0.00 0.00 0.00 70 1012.4
20260503054006 11 159 1.6 6.4 0.00 0.00 0.00 72 1012.4
20260503053003 10 174 1.6 6.4 0.00 0.00 0.00 75 1012.5
20260503052006 10 171 0.0 6.4 0.00 0.00 0.00 76 1012.5
20260503051003 9 0 0.0 0.0 0.00 0.00 0.00 77 1012.7
20260503050220 8 0 0.0 0.0 0.00 0.00 0.00 77 1012.6
20260503045006 8 0 1.6 0.0 0.00 0.00 0.00 77 1012.5
20260503044006 8 196 1.6 4.8 0.00 0.00 0.00 77 1012.5
20260503043220 8 180 1.6 8.0 0.00 0.00 0.00 77 1012.5
20260503042006 8 200 3.2 8.0 0.00 0.00 0.00 77 1012.5
20260503041220 8 190 4.8 8.0 0.00 0.00 0.00 76 1012.5
20260503040006 8 186 3.2 11.3 0.00 0.00 0.00 76 1012.5
20260503035003 8 189 3.2 8.0 0.00 0.00 0.00 75 1012.5
20260503034006 8 199 0.0 6.4 0.00 0.00 0.00 74 1012.5
20260503033220 9 0 0.0 3.2 0.00 0.00 0.00 74 1012.5
20260503032006 9 0 0.0 4.8 0.00 0.00 0.00 73 1012.5
20260503031219 9 199 1.6 4.8 0.00 0.00 0.00 73 1012.4
20260503030006 9 218 1.6 6.4 0.00 0.00 0.00 73 1012.5
20260503025006 9 216 1.6 4.8 0.00 0.00 0.00 73 1012.6
20260503024006 9 193 3.2 8.0 0.00 0.00 0.00 73 1012.5
20260503023006 9 216 3.2 6.4 0.00 0.00 0.00 73 1012.5
20260503022006 9 198 3.2 9.7 0.00 0.00 0.00 72 1012.6
20260503021217 10 188 3.2 9.7 0.00 0.00 0.00 72 1012.6
20260503020006 10 202 3.2 11.3 0.00 0.00 0.00 71 1012.6
20260503015003 10 225 0.0 6.4 0.00 0.00 0.00 71 1012.6
20260503014223 10 0 0.0 0.0 0.00 0.00 0.00 69 1012.7
20260503013221 10 0 0.0 0.0 0.00 0.00 0.00 69 1012.7
20260503012007 11 182 1.6 4.8 0.00 0.00 0.00 68 1012.7
20260503011006 11 186 3.2 9.7 0.00 0.00 0.00 68 1012.8
20260503010006 11 209 1.6 8.0 0.00 0.00 0.00 68 1012.8
20260503005006 11 0 0.0 0.0 0.00 0.00 0.00 67 1012.9
20260503004006 11 199 1.6 1.6 0.00 0.00 0.00 67 1013.0
20260503003003 11 194 1.6 6.4 0.00 0.00 0.00 66 1013.0
20260503002218 11 175 1.6 6.4 0.00 0.00 0.00 66 1013.0
20260503001003 11 204 3.2 6.4 0.00 0.00 0.00 65 1013.1
20260503000006 11 213 0.0 4.8 0.00 0.00 0.00 65 1013.1
20260502235003 12 0 0.0 0.0 0.00 0.00 0.00 64 1013.2
20260502234006 12 203 1.6 3.2 0.00 0.00 0.00 62 1013.2
20260502233003 12 203 1.6 3.2 0.00 0.00 0.00 61 1013.3
20260502232003 12 207 3.2 4.8 0.00 0.00 0.00 61 1013.4
20260502231006 12 200 3.2 4.8 0.00 0.00 0.00 60 1013.4
20260502230003 12 216 1.6 4.8 0.00 0.00 0.00 60 1013.4
20260502225006 13 205 0.0 3.2 0.00 0.00 0.00 59 1013.4
20260502224006 13 193 0.0 3.2 0.00 0.00 0.00 58 1013.5
20260502223003 13 188 0.0 3.2 0.00 0.00 0.00 57 1013.5